Вернуться в каталог

GAOFEN 9 03

АктивенНаукаSSO
NORAD 45794·PAYLOAD·🇨🇳 China

Запущен Jun 17, 2020 с Jiuquan Satellite Launch Center

Loading…

Ближайшие Пролёты (ближайшие 24 часа)

TLE

СвежийSource: Space-Track

Эпоха: Sep 14, 2026, 13:49 UTC

1 45794U 20039A   26257.57595478  .00008031  00000-0  24782-3 0  9993
2 45794  97.5513  33.2512 0012258 120.8026 239.4424 15.33776310347451

Отслеживайте GAOFEN 9 03 в реальном времени с AllMySat

Download on the App Store